Location: Unspecified
(0.0000°N, 0.0000°E)
Time: 11:20:44
(UTC+00:00)

Explorer 11/Cluster Stage 4 - Pass Details

Date: 23 November 2019
Orbit: 467 x 1259 km, 28.8° (Epoch: 07 December)

Event Time Altitude Azimuth Distance (km) Brightness Sun altitude
Rises 11:50:39 0° 211° (SSW) 2,858 9.7 69.6°
Reaches altitude 10° 11:54:35 10° 177° (S) 1,795 8.9 69.6°
Maximum altitude 11:56:02 12° 156° (SSE) 1,645 8.7 69.5°
Drops below altitude 10° 11:57:26 10° 135° (SE) 1,704 8.7 69.5°
Sets 12:00:52 0° 100° (E) 2,508 9.2 69.4°
